When you browse on this site, cookies collect data to enhance your experience and personalize the content and advertising you see.
Visit our Privacy Policy to learn more. By continuing to use the site, you agree to this use of cookies and data.
  • In Hungary
  • List of Countries
  • For 7 days
  • Water Temperature
  • Weather Map
  • News
  • Weather Widgets
  • user-avatar
    Login

    Hourly Weather Balrampur

    Today, 22 February, Saturday

    Time Temperature Precipitation Wind Pressure Humidity
    00:00 +16°C° 0.1 mm 3 mps 755 mmHg 81%
    01:00 +16°C° 0.1 mm 3 mps 754 mmHg 83%
    02:00 +14°C° 0.1 mm 3 mps 754 mmHg 85%
    03:00 +14°C° 0 mm 3 mps 754 mmHg 83%
    04:00 +15°C° 0 mm 2 mps 753 mmHg 81%
    05:00 +15°C° 0 mm 2 mps 753 mmHg 79%
    06:00 +17°C° 0 mm 2 mps 754 mmHg 72%
    07:00 +18°C° 0 mm 2 mps 755 mmHg 65%
    08:00 +20°C° 0 mm 2 mps 755 mmHg 59%
    09:00 +23°C° 0 mm 2 mps 755 mmHg 54%
    10:00 +25°C° 0 mm 3 mps 755 mmHg 48%
    11:00 +27°C° 0 mm 3 mps 755 mmHg 43%
    12:00 +28°C° 0 mm 4 mps 754 mmHg 41%
    13:00 +29°C° 0 mm 4 mps 753 mmHg 39%
    14:00 +30°C° 0 mm 4 mps 753 mmHg 36%
    15:00 +29°C° 0 mm 3 mps 752 mmHg 41%
    16:00 +27°C° 0 mm 3 mps 752 mmHg 46%
    17:00 +26°C° 0 mm 2 mps 752 mmHg 51%
    18:00 +25°C° 0 mm 1 mps 752 mmHg 55%
    19:00 +23°C° 0 mm 1 mps 753 mmHg 59%
    20:00 +22°C° 0 mm 1 mps 753 mmHg 63%
    21:00 +21°C° 0 mm 1 mps 753 mmHg 63%
    22:00 +21°C° 0 mm 1 mps 753 mmHg 64%
    23:00 +19°C° 0 mm 2 mps 753 mmHg 64%

    Tomorrow, 23 February, Sunday

    Time Temperature Precipitation Wind Pressure Humidity
    00:00 +19°C° 0 mm 2 mps 753 mmHg 65%
    01:00 +18°C° 0 mm 2 mps 752 mmHg 67%
    02:00 +18°C° 0 mm 2 mps 752 mmHg 68%
    03:00 +18°C° 0 mm 2 mps 752 mmHg 67%
    04:00 +17°C° 0 mm 2 mps 752 mmHg 67%
    05:00 +17°C° 0 mm 2 mps 751 mmHg 66%
    06:00 +19°C° 0 mm 2 mps 752 mmHg 62%
    07:00 +20°C° 0 mm 3 mps 753 mmHg 58%
    08:00 +21°C° 0 mm 3 mps 753 mmHg 55%
    09:00 +24°C° 0 mm 3 mps 753 mmHg 50%
    10:00 +27°C° 0 mm 4 mps 753 mmHg 46%
    11:00 +29°C° 0 mm 5 mps 753 mmHg 41%
    12:00 +29°C° 0 mm 5 mps 752 mmHg 41%
    13:00 +30°C° 0 mm 5 mps 751 mmHg 41%
    14:00 +30°C° 0 mm 5 mps 751 mmHg 40%
    15:00 +29°C° 0 mm 4 mps 750 mmHg 45%
    16:00 +28°C° 0 mm 3 mps 750 mmHg 51%
    17:00 +27°C° 0 mm 2 mps 750 mmHg 56%
    18:00 +25°C° 0.5 mm 2 mps 750 mmHg 61%
    19:00 +23°C° 0.5 mm 2 mps 750 mmHg 67%
    20:00 +21°C° 0.5 mm 2 mps 750 mmHg 72%
    21:00 +20°C° 0 mm 2 mps 750 mmHg 73%
    22:00 +20°C° 0 mm 2 mps 750 mmHg 75%
    23:00 +20°C° 0 mm 2 mps 750 mmHg 77%

    Day after tomorrow, 24 February, Monday

    Time Temperature Precipitation Wind Pressure Humidity
    00:00 +19°C° 0.1 mm 2 mps 750 mmHg 77%
    01:00 +19°C° 0.1 mm 2 mps 750 mmHg 77%
    02:00 +19°C° 0.1 mm 1 mps 750 mmHg 78%
    03:00 +19°C° 0.2 mm 1 mps 749 mmHg 79%
    04:00 +18°C° 0.2 mm 1 mps 749 mmHg 80%
    05:00 +18°C° 0.2 mm 1 mps 749 mmHg 80%
    06:00 +18°C° 0 mm 2 mps 750 mmHg 75%
    07:00 +19°C° 0 mm 2 mps 750 mmHg 69%
    08:00 +21°C° 0 mm 2 mps 751 mmHg 63%
    09:00 +24°C° 0.2 mm 3 mps 751 mmHg 58%
    10:00 +25°C° 0.2 mm 3 mps 751 mmHg 54%
    11:00 +27°C° 0.2 mm 4 mps 751 mmHg 50%
    12:00 +28°C° 0 mm 4 mps 750 mmHg 47%
    13:00 +29°C° 0 mm 4 mps 749 mmHg 43%
    14:00 +30°C° 0 mm 4 mps 749 mmHg 40%
    15:00 +29°C° 0 mm 3 mps 748 mmHg 45%
    16:00 +28°C° 0 mm 2 mps 748 mmHg 49%
    17:00 +27°C° 0 mm 1 mps 747 mmHg 54%
    18:00 +25°C° 0.8 mm 2 mps 748 mmHg 63%
    19:00 +23°C° 0.8 mm 2 mps 748 mmHg 71%
    20:00 +20°C° 0.8 mm 3 mps 748 mmHg 79%
    21:00 +19°C° 0.6 mm 2 mps 749 mmHg 80%
    22:00 +19°C° 0.6 mm 2 mps 749 mmHg 81%
    23:00 +18°C° 0.6 mm 2 mps 749 mmHg 82%

    25 February, Tuesday

    Time Temperature Precipitation Wind Pressure Humidity
    00:00 +18°C° 0.3 mm 2 mps 749 mmHg 83%
    01:00 +17°C° 0.3 mm 2 mps 748 mmHg 83%
    02:00 +17°C° 0.3 mm 2 mps 748 mmHg 84%
    03:00 +17°C° 0.6 mm 2 mps 748 mmHg 85%
    04:00 +16°C° 0.6 mm 2 mps 748 mmHg 87%
    05:00 +16°C° 0.6 mm 3 mps 748 mmHg 88%
    06:00 +17°C° 0.3 mm 3 mps 748 mmHg 85%
    07:00 +18°C° 0.3 mm 3 mps 749 mmHg 82%
    08:00 +19°C° 0.3 mm 4 mps 750 mmHg 79%
    09:00 +20°C° 0.3 mm 5 mps 750 mmHg 76%
    10:00 +21°C° 0.3 mm 6 mps 750 mmHg 74%
    11:00 +22°C° 0.3 mm 7 mps 750 mmHg 71%
    12:00 +22°C° 0.1 mm 7 mps 750 mmHg 68%
    13:00 +23°C° 0.1 mm 6 mps 749 mmHg 66%
    14:00 +23°C° 0.1 mm 5 mps 748 mmHg 63%
    15:00 +23°C° 0.7 mm 5 mps 748 mmHg 67%
    16:00 +22°C° 0.7 mm 4 mps 748 mmHg 71%
    17:00 +21°C° 0.7 mm 4 mps 748 mmHg 74%
    18:00 +20°C° 0 mm 3 mps 748 mmHg 78%
    19:00 +19°C° 0 mm 3 mps 749 mmHg 82%
    20:00 +18°C° 0 mm 3 mps 749 mmHg 86%
    21:00 +17°C° 0 mm 3 mps 749 mmHg 88%
    22:00 +17°C° 0 mm 3 mps 750 mmHg 89%
    23:00 +17°C° 0 mm 3 mps 750 mmHg 91%

    26 February, Wednesday

    Time Temperature Precipitation Wind Pressure Humidity
    00:00 +16°C° 0 mm 3 mps 750 mmHg 92%
    01:00 +16°C° 0 mm 3 mps 749 mmHg 94%
    02:00 +14°C° 0 mm 3 mps 749 mmHg 95%
    03:00 +14°C° 0.2 mm 3 mps 749 mmHg 95%
    04:00 +14°C° 0.2 mm 3 mps 750 mmHg 95%
    05:00 +14°C° 0.2 mm 3 mps 750 mmHg 94%
    06:00 +16°C° 0 mm 3 mps 750 mmHg 89%
    07:00 +18°C° 0 mm 4 mps 751 mmHg 84%
    08:00 +19°C° 0 mm 5 mps 751 mmHg 78%
    09:00 +20°C° 0 mm 5 mps 751 mmHg 71%
    10:00 +22°C° 0 mm 5 mps 751 mmHg 63%
    11:00 +25°C° 0 mm 5 mps 751 mmHg 56%
    12:00 +25°C° 0.4 mm 4 mps 751 mmHg 55%
    13:00 +25°C° 0.4 mm 3 mps 750 mmHg 55%
    14:00 +25°C° 0.4 mm 2 mps 749 mmHg 54%
    15:00 +24°C° 0.8 mm 2 mps 749 mmHg 60%
    16:00 +23°C° 0.8 mm 2 mps 749 mmHg 66%
    17:00 +22°C° 0.8 mm 1 mps 749 mmHg 71%
    18:00 +20°C° 0 mm 2 mps 750 mmHg 76%
    19:00 +19°C° 0 mm 2 mps 750 mmHg 80%
    20:00 +18°C° 0 mm 2 mps 751 mmHg 84%
    21:00 +17°C° 0 mm 3 mps 751 mmHg 86%
    22:00 +17°C° 0 mm 3 mps 751 mmHg 88%
    23:00 +16°C° 0 mm 3 mps 751 mmHg 90%

    27 February, Thursday

    Time Temperature Precipitation Wind Pressure Humidity
    00:00 +16°C° 0 mm 3 mps 750 mmHg 91%
    01:00 +16°C° 0 mm 2 mps 750 mmHg 92%
    02:00 +15°C° 0 mm 2 mps 749 mmHg 93%
    03:00 +15°C° 0 mm 2 mps 749 mmHg 93%
    04:00 +15°C° 0 mm 1 mps 749 mmHg 93%
    05:00 +15°C° 0 mm 1 mps 749 mmHg 93%
    06:00 +16°C° 0 mm 1 mps 749 mmHg 88%
    07:00 +18°C° 0 mm 1 mps 750 mmHg 83%
    08:00 +19°C° 0 mm 1 mps 750 mmHg 79%
    09:00 +21°C° 0 mm 1 mps 751 mmHg 71%
    10:00 +23°C° 0 mm 1 mps 751 mmHg 62%
    11:00 +25°C° 0 mm 1 mps 751 mmHg 54%
    12:00 +26°C° 0 mm 1 mps 750 mmHg 51%
    13:00 +27°C° 0 mm 1 mps 750 mmHg 48%
    14:00 +27°C° 0 mm 1 mps 749 mmHg 45%
    15:00 +26°C° 0 mm 1 mps 749 mmHg 48%
    16:00 +26°C° 0 mm 1 mps 749 mmHg 51%
    17:00 +25°C° 0 mm 1 mps 749 mmHg 54%
    18:00 +21°C° 0 mm 0 mps 749 mmHg 57%
    19:00 +20°C° 0 mm 0 mps 749 mmHg 59%
    20:00 +19°C° 0 mm 0 mps 750 mmHg 62%
    21:00 +21°C° 0 mm 1 mps 750 mmHg 63%
    22:00 +19°C° 0 mm 2 mps 750 mmHg 65%
    23:00 +19°C° 0 mm 2 mps 750 mmHg 66%
    Show more